Lucknow, India

3:39 AM IST on November 24, 2017 (GMT +0530)
Lucknow

Weather History for VILK - October, 2013

Change the Weather History Date:

Tuesday, October 1, 2013

  Actual Average Record
Temperature  
Mean Temperature 81 °F -  
Max Temperature 91 °F 85 °F 99 °F (2015)
Min Temperature 71 °F 69 °F 63 °F (2014)
Cooling Degree Days 16    
Growing Degree Days 31 (Base 50)    
Moisture  
Dew Point 73 °F    
Average Humidity 69    
Maximum Humidity 94    
Minimum Humidity 50    
Precipitation  
Precipitation 0.00 in - - ()
Sea Level Pressure  
Sea Level Pressure 29.73 in    
Wind  
Wind Speed 7 mph ()    
Max Wind Speed 12 mph    
Max Gust Speed -    
Visibility 2.5 miles    
Events      
Averages and records for this station are not official NWS values.
T = Trace of Precipitation, MM = Missing Value Source: Averaged Metar Reports

Daily Weather History Graph

Daily Weather History Graph

Search for Another Location

Airport or City:

Trip Planner

Search our weather history database for the weather conditions in past years. The results will help you decide how hot, cold, wet, or windy it might be!

Date:

Astronomy

Oct. 01, 2013 Rise Set
Actual Time 5:58 AM IST 5:53 PM IST
Civil Twilight 5:35 AM IST 6:16 PM IST
Nautical Twilight 5:08 AM IST 6:43 PM IST
Astronomical Twilight 4:41 AM IST 7:09 PM IST
Moon 2:24 AM IST (10/1) 3:25 PM IST (10/1)
Length of Visible Light 12h 40m
Length of Day
11h 54m
Waning Crescent, 15% of the Moon is Illuminated
Oct 1
Waning Crescent
Oct 5
New
Oct 12
First Quarter
Oct 19
Full
Oct 27
Last Quarter

Hourly Weather History & Observations

Time (IST) Temp. Heat Index Dew Point Humidity Pressure Visibility Wind Dir Wind Speed Gust Speed Precip Events Conditions
12:00 AM 78.8 °F - 73.4 °F 83% 29.71 in 2.5 mi East 6.9 mph - N/A   Haze
1:00 AM 78.8 °F - 73.4 °F 83% 29.71 in 2.5 mi East 5.8 mph - N/A   Haze
2:00 AM 78.8 °F - 73.4 °F 83% 29.68 in 2.5 mi East 5.8 mph - N/A   Haze
3:00 AM 77.0 °F - 71.6 °F 83% 29.68 in 2.2 mi East 5.8 mph - N/A   Mist
5:00 AM 77.0 °F - 71.6 °F 83% 29.71 in 1.6 mi ENE 6.9 mph - N/A   Scattered Clouds
5:30 AM 76 °F - 74 °F 93% 29.72 in 1 mi ENE 5.8 mph - -   Mist
5:30 AM 75.2 °F - 73.4 °F 94% 29.71 in 1.6 mi ENE 5.8 mph - N/A   Partly Cloudy
6:00 AM 75.2 °F - 73.4 °F 94% 29.71 in 1.6 mi ENE 5.8 mph - N/A   Scattered Clouds
6:30 AM 77.0 °F - 71.6 °F 83% 29.74 in 1.6 mi East 5.8 mph - N/A   Scattered Clouds
8:00 AM 78.8 °F - 71.6 °F 78% 29.77 in 1.9 mi East 9.2 mph - N/A   Haze
8:30 AM 83 °F - 71 °F 58% 29.77 in 1 mi East 9.2 mph - -   Haze
8:30 AM 82.4 °F 86.3 °F 69.8 °F 66% 29.77 in 1.9 mi East 9.2 mph - N/A   Haze
9:00 AM 84.2 °F 88.4 °F 69.8 °F 62% 29.77 in 1.9 mi East 10.4 mph - N/A   Haze
9:30 AM 84.2 °F 88.4 °F 69.8 °F 62% 29.77 in 2.5 mi ESE 8.1 mph - N/A   Haze
10:00 AM 86.0 °F 90.4 °F 69.8 °F 58% 29.77 in 2.5 mi ESE 9.2 mph - N/A   Haze
10:30 AM 86.0 °F 90.4 °F 69.8 °F 58% 29.77 in 2.5 mi East 8.1 mph - N/A   Haze
11:30 AM 89 °F - 73 °F 50% 29.76 in 2 mi East 10.4 mph - -   Haze
11:30 AM 87.8 °F 95.6 °F 73.4 °F 62% 29.77 in 3.1 mi East 10.4 mph - N/A   Haze
12:00 PM 89.6 °F 98.2 °F 73.4 °F 59% 29.74 in 3.1 mi East 10.4 mph - N/A   Haze
12:30 PM 89.6 °F 98.2 °F 73.4 °F 59% 29.74 in 3.1 mi East 9.2 mph - N/A   Haze
1:00 PM 89.6 °F 98.2 °F 73.4 °F 59% 29.74 in 3.1 mi East 9.2 mph - N/A   Haze
1:30 PM 89.6 °F 98.2 °F 73.4 °F 59% 29.71 in 3.1 mi East 10.4 mph - N/A   Haze
2:00 PM 89.6 °F 98.2 °F 73.4 °F 59% 29.71 in 3.1 mi ENE 9.2 mph - N/A   Haze
2:30 PM 89.6 °F 98.2 °F 73.4 °F 59% 29.71 in 3.1 mi ENE 11.5 mph - N/A   Haze
3:00 PM 89.6 °F 98.2 °F 73.4 °F 59% 29.68 in 3.1 mi East 11.5 mph - N/A   Haze
3:30 PM 89.6 °F 98.2 °F 73.4 °F 59% 29.68 in 3.1 mi East 10.4 mph - N/A   Haze
4:00 PM 89.6 °F 98.2 °F 73.4 °F 59% 29.68 in 3.1 mi East 10.4 mph - N/A   Haze
4:30 PM 89.6 °F 98.2 °F 73.4 °F 59% 29.68 in 3.1 mi East 11.5 mph - N/A   Haze
5:00 PM 89.6 °F 98.2 °F 73.4 °F 59% 29.68 in 3.1 mi East 8.1 mph - N/A   Haze
5:30 PM 86 °F - 73 °F 58% 29.69 in 2 mi East 10.4 mph - -   Haze
5:30 PM 86.0 °F 93.4 °F 73.4 °F 66% 29.68 in 3.1 mi East 10.4 mph - N/A   Haze
6:00 PM 84.2 °F 92.3 °F 75.2 °F 74% 29.71 in 3.1 mi East 6.9 mph - N/A   Haze
6:30 PM 84.2 °F 92.3 °F 75.2 °F 74% 29.71 in 3.1 mi ENE 6.9 mph - N/A   Haze
7:00 PM 84.2 °F 92.3 °F 75.2 °F 74% 29.74 in 3.1 mi ENE 9.2 mph - N/A   Haze
7:30 PM 82.4 °F 89.5 °F 75.2 °F 79% 29.74 in 3.1 mi ENE 6.9 mph - N/A   Haze
8:00 PM 82.4 °F 89.5 °F 75.2 °F 79% 29.77 in 3.1 mi ENE 6.9 mph - N/A   Haze
8:30 PM 82 °F - 71 °F 61% 29.78 in 2 mi ENE 6.9 mph - -   Haze
8:30 PM 82.4 °F 87.2 °F 71.6 °F 70% 29.77 in 2.5 mi ENE 6.9 mph - N/A   Haze
9:00 PM 80.6 °F 84.6 °F 71.6 °F 74% 29.77 in 3.1 mi ENE 6.9 mph - N/A   Haze
10:00 PM 80.6 °F 84.6 °F 71.6 °F 74% 29.80 in 3.1 mi NE 5.8 mph - N/A   Haze
11:00 PM 80.6 °F 84.6 °F 71.6 °F 74% 29.80 in 3.1 mi ENE 5.8 mph - N/A   Haze
11:30 PM 79 °F - 70 °F 68% 29.80 in 2 mi ENE 8.1 mph - -   Haze